Szolnok, Hungary

5:27 AM CEST on July 25, 2016 (GMT +0200)
Szolnok

Weather History for LHSN - October, 2012

Change the Weather History Date:

Sunday, October 21, 2012

  Actual Average (LHBP) Record (LHBP)
Temperature  
Mean Temperature 55 °F -  
Max Temperature 68 °F 57 °F 71 °F (2001)
Min Temperature 42 °F 39 °F 30 °F (1997)
Degree Days  
Heating Degree Days 10    
Growing Degree Days 5 (Base 50)    
Moisture  
Dew Point 46 °F    
Average Humidity 76    
Maximum Humidity 94    
Minimum Humidity 49    
Precipitation  
Precipitation 0.00 in - - ()
Sea Level Pressure  
Sea Level Pressure 30.15 in    
Wind  
Wind Speed 3 mph ()    
Max Wind Speed 7 mph    
Max Gust Speed -    
Visibility 3.2 miles    
Events Fog    
Averages and records for this station are not official NWS values.
T = Trace of Precipitation, MM = Missing Value Source: Averaged Metar Reports

Daily Weather History Graph

Daily Weather History Graph

Search for Another Location

Airport or City:

Trip Planner

Search our weather history database for the weather conditions in past years. The results will help you decide how hot, cold, wet, or windy it might be!

Date:

Astronomy

Oct. 21, 2012 Rise Set
Actual Time 7:06 AM CEST 5:40 PM CEST
Civil Twilight 6:35 AM CEST 6:11 PM CEST
Nautical Twilight 5:59 AM CEST 6:46 PM CEST
Astronomical Twilight 5:24 AM CEST 7:22 PM CEST
Moon 1:23 PM CEST (10/21) 11:06 PM CEST (10/21)
Length of Visible Light 11h 36m
Length of Day
10h 34m
Waxing Crescent, 42% of the Moon is Illuminated
Oct 21
Waxing Crescent
Oct 22
First Quarter
Oct 29
Full
Nov 7
Last Quarter
Nov 13
New

Hourly Weather History & Observations

Time (CEST) Temp. Windchill Dew Point Humidity Pressure Visibility Wind Dir Wind Speed Gust Speed Precip Events Conditions
12:15 AM 50.0 °F - 46.4 °F 87% 30.12 in - ENE 2.2 mph - N/A   Clear
12:45 AM 50.0 °F - 48.2 °F 94% 30.12 in - East 2.2 mph - N/A   Clear
1:15 AM 48.2 °F - 46.4 °F 93% 30.12 in - Calm Calm - N/A   Clear
1:45 AM 46.4 °F - 44.6 °F 93% 30.15 in 5.0 mi Calm Calm - N/A   Clear
2:45 AM 46.4 °F - 44.6 °F 93% 30.12 in 5.0 mi Calm Calm - N/A   Clear
3:15 AM 46.4 °F - 42.8 °F 87% 30.12 in 5.0 mi SE 2.2 mph - N/A   Clear
3:45 AM - - - N/A% - 1.9 mi Variable 4.5 mph - N/A Fog Fog
4:15 AM 44.6 °F - 42.8 °F 93% 30.15 in 3.7 mi East 2.2 mph - N/A   Clear
4:45 AM 44.6 °F - 42.8 °F 93% 30.15 in 3.1 mi East 2.2 mph - N/A   Clear
5:15 AM 44.6 °F - 42.8 °F 93% 30.15 in 3.1 mi East 2.2 mph - N/A   Clear
5:45 AM 42.8 °F - 41.0 °F 93% 30.15 in 3.1 mi East 2.2 mph - N/A   Clear
6:15 AM 42.8 °F - 41.0 °F 93% 30.15 in 3.1 mi ESE 2.2 mph - N/A   Clear
6:45 AM - - - N/A% - 1.9 mi Variable 4.5 mph - N/A Fog Fog
7:15 AM 42.8 °F - 41.0 °F 93% 30.15 in 0.9 mi East 2.2 mph - N/A   Partly Cloudy
7:45 AM 42.8 °F 40.2 °F 41.0 °F 93% 30.15 in 1.9 mi East 4.5 mph - N/A   Partly Cloudy
8:15 AM 46.4 °F 44.4 °F 42.8 °F 87% 30.18 in 2.5 mi East 4.5 mph - N/A   Partly Cloudy
8:45 AM 48.2 °F - 44.6 °F 87% 30.18 in 3.1 mi East 4.5 mph - N/A   Clear
9:15 AM 51.8 °F - 48.2 °F 88% 30.18 in 3.1 mi East 4.5 mph - N/A   Clear
9:45 AM - - - N/A% - 4.3 mi East 4.5 mph - N/A   Clear
10:15 AM 59.0 °F - 46.4 °F 63% 30.18 in - South 4.5 mph - N/A   Clear
10:45 AM 60.8 °F - 48.2 °F 63% 30.18 in - SSE 4.5 mph - N/A   Clear
11:45 AM 62.6 °F - 48.2 °F 59% 30.18 in - South 6.7 mph - N/A   Clear
12:45 PM - - - N/A% - 3.1 mi SSE 6.7 mph - N/A   Clear
1:15 PM 68.0 °F - 48.2 °F 49% 30.15 in - ESE 4.5 mph - N/A   Clear
1:45 PM 68.0 °F - 48.2 °F 49% 30.15 in - SE 4.5 mph - N/A   Clear
2:15 PM 68.0 °F - 50.0 °F 52% 30.15 in - SE 4.5 mph - N/A   Clear
2:45 PM 68.0 °F - 50.0 °F 52% 30.12 in - SE 4.5 mph - N/A   Clear
3:15 PM 68.0 °F - 48.2 °F 49% 30.12 in - SE 4.5 mph - N/A   Clear
3:45 PM - - - N/A% - 3.1 mi SE 4.5 mph - N/A   Clear
4:15 PM 68.0 °F - 48.2 °F 49% 30.12 in - ESE 2.2 mph - N/A   Clear
4:45 PM 68.0 °F - 50.0 °F 52% 30.12 in - ESE 4.5 mph - N/A   Clear
5:15 PM 66.2 °F - 48.2 °F 52% 30.12 in - East 4.5 mph - N/A   Clear
5:45 PM 64.4 °F - 48.2 °F 56% 30.12 in - East 4.5 mph - N/A   Clear
6:15 PM 59.0 °F - 46.4 °F 63% 30.15 in - ENE 4.5 mph - N/A   Clear
6:45 PM - - - N/A% - 3.1 mi Variable 4.5 mph - N/A Fog Fog
7:15 PM 57.2 °F - 46.4 °F 67% 30.15 in - ENE 4.5 mph - N/A   Clear
7:45 PM 55.4 °F - 48.2 °F 77% 30.15 in - ENE 4.5 mph - N/A   Clear
8:15 PM 55.4 °F - 48.2 °F 77% 30.15 in - NE 4.5 mph - N/A   Clear
8:45 PM 53.6 °F - 46.4 °F 77% 30.15 in - ENE 4.5 mph - N/A   Clear
9:15 PM 53.6 °F - 48.2 °F 82% 30.15 in - East 2.2 mph - N/A   Clear
9:45 PM - - - N/A% - 3.1 mi Variable 4.5 mph - N/A Fog Fog
10:15 PM 51.8 °F - 48.2 °F 88% 30.15 in - NNE 2.2 mph - N/A   Clear
10:45 PM 51.8 °F - 48.2 °F 88% 30.15 in - NE 2.2 mph - N/A   Clear
11:15 PM 51.8 °F - 48.2 °F 88% 30.15 in - Variable 2.2 mph - N/A   Clear
11:45 PM 48.2 °F - 46.4 °F 93% 30.15 in - Variable 2.2 mph - N/A   Clear